Location: Bretagne
(43.8474°N, 0.4650°W)
Time: 10:45:59
(UTC+00:00)

Meteor 1-12 Rocket - Pass Details

Date: 15 January 2026
Orbit: 853 x 925 km, 81.2° (Epoch: 10 February)

Event Time Altitude Azimuth Distance (km) Brightness Sun altitude
Rises 17:50:25 0° 353° (N) 3,440 7.3 -10.8°
Reaches altitude 10° 17:52:55 10° 358° (N) 2,496 6.5 -11.2°
Maximum altitude 17:58:28 56° 76° (ENE) 1,011 4.3 -12.2°
Drops below altitude 10° 18:03:59 10° 154° (SSE) 2,482 6.6 -13.1°
Sets 18:06:27 0° 159° (SSE) 3,419 7.3 -13.5°
